Toronto Pearson, Ontario

9:35 AM EDT on October 22, 2019 (GMT -0400)
Toronto-Pearson International

Weather History for CYYZ - May, 2019

Change the Weather History Date:

Tuesday, May 14, 2019

  Actual Average Record
Temperature  
Mean Temperature 52 °F -  
Max Temperature 60 °F 69 °F 78 °F (1998)
Min Temperature 43 °F 47 °F 34 °F (2013)
Degree Days  
Heating Degree Days 14    
Growing Degree Days 2 (Base 50)    
Moisture  
Dew Point 41 °F    
Average Humidity 76    
Maximum Humidity 100    
Minimum Humidity 27    
Precipitation  
Precipitation 0.02 in 0.09 in - ()
Sea Level Pressure  
Sea Level Pressure 29.89 in    
Wind  
Wind Speed 8 mph ()    
Max Wind Speed 16 mph    
Max Gust Speed 18 mph    
Visibility 12.8 miles    
Events Rain    
Averages and records for this station are not official NWS values.
T = Trace of Precipitation, MM = Missing Value Source: Averaged Metar Reports

Daily Weather History Graph

Daily Weather History Graph

Search for Another Location

Airport or City:

Astronomy

May. 14, 2019 Rise Set
Actual Time 5:54 AM EDT 8:35 PM EDT
Civil Twilight 5:21 AM EDT 9:08 PM EDT
Nautical Twilight 4:40 AM EDT 9:50 PM EDT
Astronomical Twilight 3:52 AM EDT 10:38 PM EDT
Moon 3:43 PM EDT (5/14) 3:59 AM EDT (5/14)
Length of Visible Light 15h 47m
Length of Day
14h 40m
Waxing Gibbous, 79% of the Moon is Illuminated
May 14
Waxing Gibbous
May 18
Full
May 26
Last Quarter
Jun 3
New
Jun 10
First Quarter

Hourly Weather History & Observations

Time (EDT) Temp. Windchill Dew Point Humidity Pressure Visibility Wind Dir Wind Speed Gust Speed Precip Events Conditions
12:00 AM 44.6 °F 40.2 °F 44.6 °F 100% 29.83 in 4.0 mi ENE 8.1 mph - N/A Rain Light Rain
1:00 AM 44.6 °F 40.2 °F 44.6 °F 100% 29.83 in 4.0 mi NE 8.1 mph - N/A Rain Light Rain
1:18 AM 44.6 °F 39.7 °F 44.6 °F 100% 29.83 in 5.0 mi NE 9.2 mph - N/A   Light Drizzle
1:30 AM 44.6 °F 39.7 °F 44.6 °F 100% 29.83 in 5.0 mi NE 9.2 mph - N/A   Light Drizzle
2:00 AM 44 °F - 43 °F 96% 29.83 in 3 mi NE 10.4 mph - - Rain Light Drizzle
2:00 AM 44.6 °F 39.2 °F 42.8 °F 93% 29.83 in 3.0 mi NE 10.4 mph - N/A   Light Drizzle
3:00 AM 44.6 °F 39.2 °F 42.8 °F 93% 29.83 in 6.0 mi NE 10.4 mph - N/A   Light Drizzle
3:52 AM 44.6 °F 40.2 °F 42.8 °F 93% 29.83 in 15.0 mi NE 8.1 mph - N/A   Light Drizzle
4:00 AM 44.6 °F 39.2 °F 42.8 °F 93% 29.83 in 12.0 mi NE 10.4 mph - N/A   Light Drizzle
4:28 AM 44.6 °F 39.2 °F 41.0 °F 87% 29.84 in 9.0 mi NE 10.4 mph - N/A Rain Light Rain
4:53 AM 42.8 °F 37.0 °F 41.0 °F 93% 29.85 in 15.0 mi NE 10.4 mph - N/A   Overcast
5:00 AM 43 °F - 42 °F 92% 29.85 in 15 mi NE 9.2 mph - -   Overcast
5:00 AM 42.8 °F 37.5 °F 41.0 °F 93% 29.85 in 15.0 mi NE 9.2 mph - N/A   Overcast
6:00 AM 44.6 °F 39.7 °F 41.0 °F 87% 29.87 in 15.0 mi NE 9.2 mph - N/A   Overcast
6:41 AM 44.6 °F 40.7 °F 41.0 °F 87% 29.88 in 15.0 mi NNE 6.9 mph - N/A Rain Light Rain Showers
7:00 AM 44.6 °F 38.4 °F 41.0 °F 87% 29.89 in 15.0 mi NE 12.7 mph - N/A Rain Light Rain Showers
7:16 AM 44.6 °F 38.8 °F 41.0 °F 87% 29.90 in 15.0 mi NE 11.5 mph 17.3 mph N/A   Overcast
8:00 AM 44 °F - 41 °F 83% 29.92 in 15 mi NE 11.5 mph - - Rain Light Rain Showers
8:00 AM 44.6 °F 38.4 °F 41.0 °F 87% 29.92 in 15.0 mi NE 12.7 mph - N/A   Overcast
8:09 AM 44.6 °F 38.4 °F 41.0 °F 87% 29.92 in 15.0 mi NE 12.7 mph - N/A Rain Light Rain Showers
9:00 AM 44.6 °F 39.7 °F 42.8 °F 93% 29.93 in 12.0 mi NE 9.2 mph - N/A Rain Light Rain Showers
10:00 AM 46.4 °F 41.9 °F 42.8 °F 87% 29.94 in 15.0 mi NE 9.2 mph - N/A   Overcast
11:00 AM 49 °F - 43 °F 73% 29.94 in 15 mi North 6.9 mph - -  
11:00 AM 48.2 °F - 42.8 °F 82% 29.94 in 15.0 mi North 4.6 mph - N/A   Mostly Cloudy
12:00 PM 50.0 °F - 42.8 °F 76% 29.94 in 15.0 mi NE 10.4 mph - N/A   Mostly Cloudy
1:00 PM 51.8 °F - 42.8 °F 71% 29.94 in 15.0 mi NE 5.8 mph - N/A   Overcast
2:00 PM 53 °F - 42 °F 58% 29.94 in 15 mi NNE 5.8 mph - -   Partly Cloudy
2:00 PM 53.6 °F - 42.8 °F 67% 29.94 in 15.0 mi NE 6.9 mph - N/A   Overcast
3:00 PM 55.4 °F - 41.0 °F 58% 29.94 in 15.0 mi NNW 8.1 mph - N/A   Overcast
4:00 PM 57.2 °F - 39.2 °F 51% 29.92 in 15.0 mi NW 12.7 mph 18.4 mph N/A   Mostly Cloudy
5:00 PM 58 °F - 37 °F 33% 29.91 in 15 mi NW 15.0 mph - -  
5:00 PM 59.0 °F - 37.4 °F 45% 29.91 in 15.0 mi NW 16.1 mph - N/A   Mostly Cloudy
6:00 PM 59.0 °F - 39.2 °F 48% 29.91 in 15.0 mi NNW 9.2 mph 18.4 mph N/A   Mostly Cloudy
7:00 PM 59.0 °F - 35.6 °F 42% 29.91 in 15.0 mi NNE 8.1 mph - N/A   Partly Cloudy
8:00 PM 58 °F - 33 °F 27% 29.91 in 15 mi NE 10.4 mph - -   Scattered Clouds
8:00 PM 59.0 °F - 33.8 °F 39% 29.91 in 15.0 mi NE 9.2 mph - N/A   Mostly Cloudy
9:00 PM 55.4 °F - 33.8 °F 44% 29.91 in 15.0 mi ENE 12.7 mph - N/A   Partly Cloudy
10:00 PM 51.8 °F - 41.0 °F 67% 29.93 in 15.0 mi SE 3.5 mph - N/A   Partly Cloudy
11:00 PM 49 °F - 43 °F 74% 29.93 in 15 mi ESE 3.5 mph - -  
11:00 PM 48.2 °F - 42.8 °F 82% 29.93 in 15.0 mi SSE 3.5 mph - N/A   Clear